Weather reports worldwide

Advertisment
Pershore, United Kingdom (3529): temperature & dewpoint: 18.05.2017 20:00:00 - 24.05.2017 20:00:00 (BST)Pershore, United Kingdom (3529): temperature 5cm: 18.05.2017 20:00:00 - 24.05.2017 20:00:00 (BST)Pershore, United Kingdom (3529): temperature -20cm & temperature -100cm: 18.05.2017 20:00:00 - 24.05.2017 20:00:00 (BST)Pershore, United Kingdom (3529): wind speed: 18.05.2017 20:00:00 - 24.05.2017 20:00:00 (BST)Pershore, United Kingdom (3529): wind direction: 18.05.2017 20:00:00 - 24.05.2017 20:00:00 (BST)Pershore, United Kingdom (3529): reduced air pressure: 18.05.2017 20:00:00 - 24.05.2017 20:00:00 (BST)Pershore, United Kingdom (3529): visibility: 18.05.2017 20:00:00 - 24.05.2017 20:00:00 (BST)Pershore, United Kingdom (3529): precipitation: 18.05.2017 20:00:00 - 24.05.2017 20:00:00 (BST)
Date & Time tt [°C] td [°C] tt 5cm [°C] tt -20cm [°C] tt -100cm [°C] ff [km/h] ff [kn] dd ppp [hPa] vv [km] rr [mm]
24.05.2017 20:00:00 24,9 14,1 - - - 2 1 WNW 1025,1 40 0,0
24.05.2017 19:00:00 25,1 13,9 - - - 4 2 NW 1025,1 40 0,0
24.05.2017 18:00:00 26,5 16,5 - - - 8 4 WNW 1025,2 30 0,0
24.05.2017 17:00:00 24,8 13,3 - - - 4 2 N 1025,5 35 0,0
24.05.2017 16:00:00 25,7 14,6 - - - 8 4 W 1025,9 27 0,0
24.05.2017 15:00:00 24,7 13,0 - - - 5 3 W 1026,2 30 0,0
24.05.2017 14:00:00 23,6 14,5 - - - 5 3 WSW 1026,3 29 0,0
24.05.2017 13:00:00 22,7 14,4 - - - 8 4 WNW 1026,8 30 0,0
24.05.2017 12:00:00 21,9 14,4 - - - 4 2 NNW 1027,1 16 0,0
24.05.2017 11:00:00 19,7 13,8 - - - 5 3 S 1027,3 21 0,0
24.05.2017 10:00:00 17,6 13,9 17,7 15,2 12,4 8 4 SW 1027,2 19 0,0
24.05.2017 09:00:00 15,2 13,4 - - - 8 4 WSW 1027,2 19 0,0
24.05.2017 08:00:00 13,2 13,1 - - - 5 3 WSW 1027,0 9 0,0
24.05.2017 07:00:00 11,4 11,3 - - - 2 1 NW 1026,6 0,2 0,0
24.05.2017 06:00:00 9,4 8,9 - - - 2 1 SW 1026,1 0,2 0,0
24.05.2017 05:00:00 10,3 9,8 - - - 2 1 SW 1025,6 0,1 0,0
24.05.2017 04:00:00 11,5 11,1 - - - 8 4 SW 1025,6 3,0 0,0
24.05.2017 03:00:00 12,1 11,6 - - - 5 3 SW 1025,8 4,8 0,0
24.05.2017 02:00:00 12,7 10,9 - - - 5 3 WSW 1025,6 45 0,0
24.05.2017 01:00:00 14,5 11,3 - - - 5 3 W 1025,3 45 0,0
24.05.2017 00:00:00 15,8 12,7 - - - 5 3 WSW 1025,0 50 0,0
23.05.2017 23:00:00 15,3 13,1 - - - 5 3 W 1024,8 13 0,0
23.05.2017 22:00:00 16,5 14,3 - - - 11 6 WSW 1024,4 18 0,0
23.05.2017 21:00:00 17,9 14,5 - - - 11 6 S 1023,5 18 0,0
23.05.2017 20:00:00 19,2 14,4 - - - 13 7 SSW 1022,9 28 0,0
23.05.2017 19:00:00 20,6 14,1 - - - 16 9 SSW 1022,5 30 0,0
23.05.2017 18:00:00 21,5 14,6 - - - 15 8 SW 1022,1 45 0,0
23.05.2017 17:00:00 21,7 13,9 - - - 15 8 SSW 1022,0 40 0,0
23.05.2017 16:00:00 21,2 13,5 - - - 13 7 SSW 1022,0 30 0,0
23.05.2017 15:00:00 19,7 13,6 - - - 11 6 WSW 1022,1 30 0,0
23.05.2017 14:00:00 18,0 14,0 - - - 13 7 SSW 1022,2 19 0,0
23.05.2017 13:00:00 17,5 13,9 - - - 11 6 SW 1022,3 17 0,0
23.05.2017 12:00:00 17,1 13,7 - - - 11 6 SW 1021,9 21 0,0
23.05.2017 11:00:00 15,9 12,7 - - - 13 7 S 1021,6 19 0,0
23.05.2017 10:00:00 15,6 11,8 - 14,7 12,2 13 7 S 1020,9 17 0,0
23.05.2017 09:00:00 15,0 11,3 - - - 9 5 SW 1020,4 40 0,0
23.05.2017 08:00:00 14,1 10,8 - - - 9 5 SW 1020,1 30 0,0
23.05.2017 07:00:00 13,5 10,5 - - - 9 5 SW 1019,7 30 0,0
23.05.2017 06:00:00 12,7 9,7 - - - 4 2 SSW 1019,1 35 0,0
23.05.2017 05:00:00 12,5 9,9 - - - 4 2 N 1018,8 27 0,0
23.05.2017 04:00:00 12,6 9,9 - - - 5 3 S 1018,6 35 0,0
23.05.2017 03:00:00 10,9 8,7 - - - 4 2 SSE 1018,0 26 0,0
23.05.2017 02:00:00 11,8 9,1 - - - 8 4 WSW 1017,5 30 0,0
23.05.2017 01:00:00 12,9 9,2 - - - 13 7 W 1017,1 35 0,0
23.05.2017 00:00:00 13,9 9,4 - - - 16 9 W 1016,7 45 0,0
22.05.2017 23:00:00 14,9 10,4 - - - 8 4 W 1016,0 45 0,0
22.05.2017 22:00:00 16,3 11,5 - - - 5 3 WSW 1015,4 40 0,0
22.05.2017 21:00:00 18,3 12,5 - - - 11 6 SSW 1014,4 40 0,0
22.05.2017 20:00:00 20,0 11,1 - - - 9 5 SW 1013,8 45 0,0
22.05.2017 19:00:00 21,6 9,6 - - - 16 9 SSW 1013,4 45 0,0
22.05.2017 18:00:00 22,7 10,7 - - - 18 10 SW 1013,5 50 0,0
22.05.2017 17:00:00 23,4 10,9 - - - 13 7 SSW 1013,2 30 0,0
22.05.2017 16:00:00 23,0 9,9 - - - 22 12 S 1013,7 45 0,0
22.05.2017 15:00:00 22,8 9,6 - - - 18 10 S 1014,2 30 0,0
22.05.2017 14:00:00 22,2 9,9 - - - 22 12 S 1014,6 35 0,0
22.05.2017 13:00:00 21,9 10,0 - - - 26 14 SSE 1014,7 30 0,0
22.05.2017 12:00:00 21,1 11,0 - - - 22 12 SSE 1015,5 30 0,0
22.05.2017 11:00:00 20,4 9,8 - - - 26 14 SSE 1015,9 45 0,0
22.05.2017 10:00:00 18,9 10,1 18,9 14,0 12,2 16 9 SSE 1016,3 45 0,0
22.05.2017 09:00:00 15,8 10,3 - - - 11 6 ESE 1016,3 50 0,0
22.05.2017 08:00:00 14,4 9,6 - - - 4 2 ESE 1016,8 35 0,0
22.05.2017 07:00:00 13,3 9,5 - - - 5 3 E 1016,7 30 0,0
22.05.2017 06:00:00 12,4 8,9 - - - 9 5 SE 1017,0 40 0,0
22.05.2017 05:00:00 11,0 8,3 - - - 5 3 SE 1017,2 30 0,0
22.05.2017 04:00:00 10,9 7,8 - - - 5 3 ESE 1017,5 35 0,0
22.05.2017 03:00:00 12,7 8,5 - - - 13 7 ESE 1018,0 50 0,0
22.05.2017 02:00:00 13,3 8,5 - - - 16 9 SE 1018,5 45 0,0
22.05.2017 01:00:00 11,5 8,6 - - - 8 4 SE 1019,3 45 0,0
22.05.2017 00:00:00 12,2 7,8 - - - 9 5 SE 1019,9 50 0,0
21.05.2017 23:00:00 11,1 7,0 - - - 8 4 SE 1020,3 45 0,0
21.05.2017 22:00:00 12,4 7,2 - - - 9 5 SSE 1020,4 50 0,0
21.05.2017 21:00:00 14,6 7,2 - - - 13 7 SE 1020,2 50 0,0
21.05.2017 20:00:00 17,4 7,9 - - - 16 9 SSE 1020,3 50 0,0
21.05.2017 19:00:00 18,5 7,1 - - - 18 10 SE 1020,5 40 0,0
21.05.2017 18:00:00 18,2 7,2 - - - 22 12 SSE 1020,9 35 0,0
21.05.2017 17:00:00 17,6 7,2 - - - 16 9 SSE 1021,5 30 0,0
21.05.2017 16:00:00 18,4 7,8 - - - 18 10 SSE 1022,0 35 0,0
21.05.2017 15:00:00 17,9 8,3 - - - 18 10 S 1022,7 29 0,0
21.05.2017 14:00:00 18,3 8,6 - - - 15 8 SSE 1023,1 50 0,0
21.05.2017 13:00:00 16,1 7,9 - - - 18 10 S 1023,8 35 0,0
21.05.2017 12:00:00 15,4 7,6 - - - 16 9 S 1024,3 40 0,0
21.05.2017 11:00:00 15,2 8,7 - - - 18 10 S 1024,4 35 0,0
21.05.2017 10:00:00 14,0 8,6 - 13,7 12,2 16 9 S 1024,4 24 0,0
21.05.2017 09:00:00 13,0 7,8 - - - 16 9 S 1024,4 30 0,0
21.05.2017 08:00:00 11,9 8,6 - - - 16 9 S 1024,1 25 0,0
21.05.2017 07:00:00 10,5 8,2 - - - 13 7 S 1023,7 18 0,0
21.05.2017 06:00:00 10,1 7,7 - - - 13 7 S 1023,2 45 0,0
21.05.2017 05:00:00 9,3 7,3 - - - 5 3 SE 1023,0 25 0,0
21.05.2017 04:00:00 9,2 7,3 - - - 13 7 S 1022,6 30 0,0
21.05.2017 03:00:00 9,5 7,6 - - - 11 6 S 1022,5 35 0,0
21.05.2017 02:00:00 9,6 7,4 - - - 11 6 S 1022,5 40 0,0
21.05.2017 01:00:00 9,6 7,0 - - - 8 4 S 1022,4 35 0,0
21.05.2017 00:00:00 9,9 6,8 - - - 13 7 S 1021,9 45 0,0
20.05.2017 23:00:00 9,9 6,4 - - - 9 5 SW 1021,0 45 0,0
20.05.2017 22:00:00 11,6 6,8 - - - 9 5 SSW 1020,5 50 0,0
20.05.2017 21:00:00 12,5 6,4 - - - 13 7 SW 1019,6 50 0,0
20.05.2017 20:00:00 14,3 6,7 - - - 15 8 SW 1018,7 50 0,0
20.05.2017 19:00:00 13,9 8,3 - - - 8 4 W 1018,1 45 0,0
20.05.2017 18:00:00 15,4 7,9 - - - 16 9 SW 1017,6 50 0,0
20.05.2017 17:00:00 15,0 9,1 - - - 15 8 WSW 1017,4 35 0,0
20.05.2017 16:00:00 14,0 8,3 - - - 11 6 W 1017,0 45 0,0
20.05.2017 15:00:00 13,8 8,0 - - - 24 13 SSW 1016,8 50 0,0
20.05.2017 14:00:00 13,6 9,8 - - - 22 12 S 1016,6 40 0,0
20.05.2017 13:00:00 13,0 9,5 - - - 21 11 SSW 1016,4 24 0,0
20.05.2017 12:00:00 12,4 7,8 - - - 22 12 SSW 1016,3 18 0,0
20.05.2017 11:00:00 13,3 8,0 - - - 24 13 S 1016,1 30 0,0
20.05.2017 10:00:00 12,3 7,6 12,9 14,0 12,0 16 9 SSW 1015,7 45 0,0
20.05.2017 09:00:00 11,8 8,7 - - - 16 9 S 1015,6 30 0,0
20.05.2017 08:00:00 10,1 8,6 - - - 9 5 SSW 1015,3 18 0,0
20.05.2017 07:00:00 8,3 7,5 - - - 9 5 SSW 1015,1 23 0,0
20.05.2017 06:00:00 6,6 6,4 - - - 4 2 SW 1014,8 14 0,0
20.05.2017 05:00:00 6,2 5,9 - - - 5 3 SSW 1014,5 20 0,0
20.05.2017 04:00:00 5,0 4,2 - - - 2 1 SSW 1014,4 24 0,0
20.05.2017 03:00:00 5,7 5,1 - - - 4 2 WSW 1014,5 40 0,0
20.05.2017 02:00:00 7,2 6,0 - - - 4 2 NW 1014,3 27 0,0
20.05.2017 01:00:00 8,5 7,4 - - - 4 2 WSW 1014,3 35 0,0
20.05.2017 00:00:00 9,4 7,9 - - - 5 3 SSW 1014,1 50 0,0
19.05.2017 23:00:00 8,5 7,3 - - - 4 2 SSW 1014,0 50 0,0
19.05.2017 22:00:00 8,7 7,2 - - - 2 1 NNW 1014,2 50 0,0
19.05.2017 21:00:00 10,3 7,3 - - - 9 5 NNW 1013,6 45 0,0
19.05.2017 20:00:00 12,6 7,1 - - - 18 10 NW 1012,9 35 0,0
19.05.2017 19:00:00 14,5 6,0 - - - 8 4 E 1012,1 45 0,0
19.05.2017 18:00:00 14,0 7,4 - - - 11 6 E 1012,1 35 0,0
19.05.2017 17:00:00 13,9 8,3 - - - 16 9 SE 1011,6 40 0,0
19.05.2017 16:00:00 16,0 5,7 - - - 5 3 WSW 1011,6 30 0,0
19.05.2017 15:00:00 16,2 5,5 - - - 15 8 SW 1011,7 35 0,0
19.05.2017 14:00:00 15,3 8,2 - - - 11 6 SW 1011,9 17 0,0
19.05.2017 13:00:00 14,4 8,1 - - - 9 5 SW 1012,2 40 0,0
19.05.2017 12:00:00 13,4 8,1 - - - 8 4 SW 1012,5 50 0,0
19.05.2017 11:00:00 11,8 8,8 - - - 8 4 WSW 1012,5 35 0,0
19.05.2017 10:00:00 10,9 8,8 11,8 13,7 12,0 5 3 WSW 1012,4 27 0,0
19.05.2017 09:00:00 10,4 9,2 - - - 8 4 WNW 1012,3 18 0,2
19.05.2017 08:00:00 9,8 9,2 - - - 5 3 WNW 1012,0 10 0,2
19.05.2017 07:00:00 9,0 8,7 - - - 5 3 W 1011,9 10 0,0
19.05.2017 06:00:00 8,5 8,1 - - - 5 3 W 1011,5 8 0,4
19.05.2017 05:00:00 8,5 8,0 - - - 4 2 WSW 1011,6 10 0,2
19.05.2017 04:00:00 8,7 8,2 - - - 5 3 W 1011,7 7 0,2
19.05.2017 03:00:00 8,9 8,3 - - - 4 2 W 1011,8 9 0,8
19.05.2017 02:00:00 9,3 8,6 - - - 8 4 W 1012,0 9 0,2
19.05.2017 01:00:00 9,7 9,1 - - - 5 3 WSW 1012,2 8 0,4
19.05.2017 00:00:00 9,9 9,2 - - - 5 3 SW 1012,7 12 1,0
18.05.2017 23:00:00 10,6 9,0 - - - 9 5 W 1012,8 7 0,2
18.05.2017 22:00:00 11,8 7,8 - - - 11 6 SE 1012,7 50 0,0
18.05.2017 21:00:00 11,9 8,2 - - - 9 5 ESE 1012,3 40 0,0
18.05.2017 20:00:00 13,1 7,5 - - - 4 2 SE 1011,9 35 0,0

tt = temperature
td = dewpoint
tt 5cm = temperature 5cm
tt -20cm = temperature -20cm
tt -100cm = temperature -100cm
ff = wind speed
dd = wind direction
ppp = reduced air pressure
vv = visibility
rr = precipitation

Next stations